Location: ????????
(60.4333°N, 46.4710°E)
Time: 19:04:05
(UTC+00:00)

Cosmos 2074 Rocket - Pass Details

Date: 25 November 2020
Orbit: 968 x 985 km, 82.9° (Epoch: 17 January)

Event Time Altitude Azimuth Distance (km) Brightness Sun altitude
Rises 12:49:34 0° 345° (NNW) 3,678 6.8 -5.4°
Reaches altitude 10° 12:52:08 10° 349° (N) 2,729 6.1 -5.7°
Maximum altitude 12:58:20 64° 71° (ENE) 1,079 4.0 -6.3°
Drops below altitude 10° 13:04:32 10° 152° (SSE) 2,723 6.4 -7.0°
Sets 13:07:04 0° 156° (SSE) 3,669 7.1 -7.2°
